Location: PACMO
(41.3967°N, 90.3760°W)
Time: 05:10:19
(UTC-05:00)

Amateur Radio Satellites - All Passes

Search period start: 16 April 2014 04:40
Search period end: 17 April 2014 04:40
Location: PACMO, 41.3967°N, 90.3760°W

Satellite Date Start Highest point End Downlink Frequencies (MHz)
Time Altitude Azimuth
AO-27 16 Apr 04:46:02 04:49:13 17° 299° (WNW) 04:52:25 436.795 MHz FM
ITAMSAT 1 16 Apr 04:58:23 05:00:49 14° 301° (WNW) 05:03:14 435.822 SSB
TMSAT-1 16 Apr 05:06:06 05:11:07 44° 290° (WNW) 05:16:06 436.925 FM
AO-40 16 Apr 05:29:24 10:50:46 36° 180° (S) 16:34:46 Beacon 2401.320
Uosat F 16 Apr 05:57:03 06:01:39 37° 291° (WNW) 06:06:13 435.120 FM
Gurwin Techsat 1B 16 Apr 05:57:28 05:59:41 13° 302° (WNW) 06:01:53 435.225 FM
AO-7 16 Apr 05:59:01 06:07:22 88° 289° (WNW) 06:15:43 29.400 - 29.500 MHz
KITSAT 1 16 Apr 06:05:38 06:12:20 27° 321° (NW) 06:19:04 435.175 FM
JAS-1B 16 Apr 06:20:09 06:24:55 28° 296° (WNW) 06:29:40 435.800 - 435.900 CW/SSB
Hamsat 16 Apr 06:20:26 06:23:24 18° 92° (E) 06:26:21 145.90 MHz
STRAND 1 16 Apr 06:33:09 06:38:10 59° 72° (ENE) 06:43:12 ?
JAS-2 16 Apr 06:46:26 06:48:15 12° 90° (E) 06:50:07 435.800 - 435.900 CW/SSB, 435.910 FM
RS-15 16 Apr 06:55:01 07:05:18 42° 109° (ESE) 07:15:14 29.354 - 29.394 USB, Beacon 29.352 USB
Oscar 10/S400 16 Apr 07:47:00 04:39:49 21° 87° (E) 12:20:01 145.825 - 145.975 CW/USB, Beacon 145.810 USB
AO-7 16 Apr 07:53:17 07:59:04 22° 309° (NW) 08:04:53 29.400 - 29.500 MHz
Hamsat 16 Apr 07:55:28 07:59:32 40° 288° (WNW) 08:03:37 145.90 MHz
KITSAT 1 16 Apr 08:08:32 08:11:11 12° 350° (N) 08:13:50 435.175 FM
STRAND 1 16 Apr 08:14:34 08:17:44 16° 269° (W) 08:20:55 ?
JAS-2 16 Apr 08:28:36 08:33:54 82° 285° (WNW) 08:39:39 435.800 - 435.900 CW/SSB, 435.910 FM
MaSat-1 16 Apr 08:33:19 08:36:07 42° 247° (WSW) 08:39:23 437.345 MHz
SO-67 16 Apr 08:37:19 08:40:46 58° 284° (WNW) 08:44:12 435.3500 MHz FM
HO-68 16 Apr 08:43:46 08:47:21 14° 88° (E) 08:50:54 435.675 MHz FM
RS-15 16 Apr 09:06:08 09:17:14 60° 310° (NW) 09:28:04 29.354 - 29.394 USB, Beacon 29.352 USB
PCSat 16 Apr 09:13:45 09:17:05 16° 41° (NE) 09:20:24 145.825 MHz
KITSAT 1 16 Apr 10:06:39 10:10:58 15° 22° (NNE) 10:15:16 435.175 FM
Sapphire 16 Apr 10:10:49 10:15:50 36° 52° (NE) 10:20:48 437.095 MHz 1200 baud AX-25 AFSK
JAS-2 16 Apr 10:17:06 10:18:17 11° 302° (WNW) 10:19:28 435.800 - 435.900 CW/SSB, 435.910 FM
HO-68 16 Apr 10:28:46 10:36:00 85° 106° (ESE) 10:43:11 435.675 MHz FM
FUNcube-1 16 Apr 10:35:43 10:38:16 16° 92° (E) 10:40:50 145.950 - 145.970 MHz USB
Oscar 11 16 Apr 10:54:56 10:59:19 84° 103° (ESE) 11:03:40 145.825 FM, Beacon 2401.500 USB
PCSat 16 Apr 10:55:51 11:01:19 86° 61° (ENE) 11:06:44 145.825 MHz
Saudisat 1A 16 Apr 10:58:03 10:59:14 11° 107° (ESE) 11:00:26 436.775 MHz
RS-15 16 Apr 11:24:04 11:32:33 24° 340° (NNW) 11:40:57 29.354 - 29.394 USB, Beacon 29.352 USB
Sapphire 16 Apr 11:54:22 11:59:11 33° 250° (WSW) 12:03:58 437.095 MHz 1200 baud AX-25 AFSK
KITSAT 1 16 Apr 12:01:15 12:08:55 43° 48° (NE) 12:16:30 435.175 FM
PANSAT 16 Apr 12:09:00 12:10:30 12° 179° (S) 12:12:01 not established
FUNcube-1 16 Apr 12:10:53 12:14:54 44° 288° (WNW) 12:18:59 145.950 - 145.970 MHz USB
HO-68 16 Apr 12:17:56 12:22:50 20° 305° (NW) 12:27:44 435.675 MHz FM
Saudisat 1A 16 Apr 12:33:44 12:38:12 79° 303° (WNW) 12:42:41 436.775 MHz
PCSat 16 Apr 12:41:49 12:43:56 12° 258° (WSW) 12:46:02 145.825 MHz
AO-27 16 Apr 12:47:19 12:49:45 14° 59° (ENE) 12:52:12 436.795 MHz FM
ITAMSAT 1 16 Apr 12:58:04 13:01:15 17° 61° (ENE) 13:04:26 435.822 SSB
Oscar 19 16 Apr 13:08:51 13:13:31 36° 68° (ENE) 13:18:12 437.125 CW, 437.150 USB
Oscar 16 16 Apr 13:16:15 13:21:07 46° 70° (ENE) 13:26:02 437.025 USB, Beacon 2401.1428
AO-Echo 16 Apr 13:37:57 13:42:28 30° 67° (ENE) 13:46:55 ?
RS-15 16 Apr 13:42:01 13:50:13 23° 17° (NNE) 13:58:26 29.354 - 29.394 USB, Beacon 29.352 USB
Uribyol 2 16 Apr 13:45:16 13:50:10 46° 70° (ENE) 13:55:05 436.500 FM
KITSAT 1 16 Apr 13:56:44 14:04:23 48° 249° (WSW) 14:11:59 435.175 FM
Gurwin Techsat 1B 16 Apr 13:58:36 14:02:15 19° 62° (ENE) 14:05:54 435.225 FM
Saudisat 1A 16 Apr 14:16:28 14:18:33 13° 323° (NW) 14:20:38 436.775 MHz
AO-27 16 Apr 14:23:21 14:28:34 83° 256° (WSW) 14:33:47 436.795 MHz FM
OPAL 16 Apr 14:34:07 14:36:48 14° 92° (E) 14:39:28 ?
ITAMSAT 1 16 Apr 14:35:03 14:40:12 66° 258° (WSW) 14:45:22 435.822 SSB
TMSAT-1 16 Apr 14:47:33 14:52:21 37° 68° (ENE) 14:57:11 436.925 FM
Oscar 19 16 Apr 14:48:36 14:52:54 27° 265° (W) 14:57:15 437.125 CW, 437.150 USB
Oscar 16 16 Apr 14:56:50 15:00:42 21° 267° (W) 15:04:35 437.025 USB, Beacon 2401.1428
AO-7 16 Apr 15:07:16 15:14:00 29° 56° (NE) 15:20:45 29.400 - 29.500 MHz
JAS-1B 16 Apr 15:12:54 15:20:28 42° 68° (ENE) 15:26:55 435.800 - 435.900 CW/SSB
AO-Echo 16 Apr 15:16:20 15:21:07 35° 263° (W) 15:25:51 ?
Uribyol 2 16 Apr 15:25:55 15:29:51 22° 266° (W) 15:33:47 436.500 FM
Uosat F 16 Apr 15:31:56 15:36:29 36° 68° (ENE) 15:41:03 435.120 FM
Gurwin Techsat 1B 16 Apr 15:36:32 15:41:45 58° 259° (W) 15:47:00 435.225 FM
ISS 16 Apr 15:36:54 15:38:05 12° 129° (SE) 15:39:16 145.800 FM
RS-15 16 Apr 15:55:06 16:05:48 55° 48° (NE) 16:16:41 29.354 - 29.394 USB, Beacon 29.352 USB
SO-50 16 Apr 16:09:28 16:13:30 34° 115° (ESE) 16:17:34 436.795 FM
OPAL 16 Apr 16:10:58 16:16:10 72° 288° (WNW) 16:21:22 ?
TMSAT-1 16 Apr 16:27:49 16:32:19 28° 265° (W) 16:36:51 436.925 FM
AO-7 16 Apr 16:57:56 17:06:09 69° 255° (WSW) 17:14:26 29.400 - 29.500 MHz
JAS-1B 16 Apr 17:03:09 17:11:01 41° 261° (W) 17:17:43 435.800 - 435.900 CW/SSB
ISS 16 Apr 17:11:01 17:14:22 83° 325° (NW) 17:17:44 145.800 FM
Uosat F 16 Apr 17:11:07 17:15:19 27° 265° (W) 17:19:33 435.120 FM
Hamsat 16 Apr 17:15:19 17:17:22 13° 64° (ENE) 17:19:26 145.90 MHz
SO-50 16 Apr 17:50:11 17:54:05 29° 313° (NW) 17:58:02 436.795 FM
OPAL 16 Apr 17:53:24 17:54:08 10° 306° (NW) 17:54:52 ?
RS-15 16 Apr 18:07:48 18:17:58 46° 250° (WSW) 18:28:25 29.354 - 29.394 USB, Beacon 29.352 USB
JAS-2 16 Apr 18:41:12 18:46:45 41° 70° (ENE) 18:51:49 435.800 - 435.900 CW/SSB, 435.910 FM
STRAND 1 16 Apr 18:44:40 18:48:19 20° 93° (E) 18:51:56 ?
Hamsat 16 Apr 18:48:47 18:52:53 55° 260° (W) 18:57:03 145.90 MHz
ISS 16 Apr 18:48:58 18:51:32 20° 343° (NNW) 18:54:06 145.800 FM
UOSAT-12 16 Apr 18:50:00 18:54:32 77° 121° (ESE) 18:59:11 437.025 FM, 437.400 FM
AO-7 16 Apr 18:57:53 19:00:22 12° 274° (W) 19:02:53 29.400 - 29.500 MHz
SO-67 16 Apr 19:11:02 19:14:21 43° 74° (ENE) 19:17:42 435.3500 MHz FM
HO-68 16 Apr 19:14:43 19:17:38 13° 50° (NE) 19:20:32 435.675 MHz FM
Saudisat 1A 16 Apr 19:22:36 19:24:46 13° 37° (NE) 19:26:55 436.775 MHz
STRAND 1 16 Apr 20:22:52 20:27:46 49° 289° (WNW) 20:32:39 ?
JAS-2 16 Apr 20:26:56 20:31:56 27° 264° (W) 20:36:34 435.800 - 435.900 CW/SSB, 435.910 FM
ISS 16 Apr 20:27:17 20:29:15 15° 4° (N) 20:31:13 145.800 FM
UOSAT-12 16 Apr 20:32:14 20:35:15 17° 320° (NW) 20:38:18 437.025 FM, 437.400 FM
SO-67 16 Apr 20:47:05 20:47:45 10° 269° (W) 20:48:26 435.3500 MHz FM
HO-68 16 Apr 20:56:57 21:03:58 64° 69° (ENE) 21:11:01 435.675 MHz FM
Saudisat 1A 16 Apr 21:00:39 21:05:05 84° 57° (ENE) 21:09:27 436.775 MHz
FUNcube-1 16 Apr 21:33:33 21:35:38 14° 64° (ENE) 21:37:43 145.950 - 145.970 MHz USB
Oscar 11 16 Apr 21:49:57 21:54:13 66° 75° (ENE) 21:58:30 145.825 FM, Beacon 2401.500 USB
ISS 16 Apr 22:03:51 22:06:50 28° 24° (NNE) 22:09:49 145.800 FM
MaSat-1 16 Apr 22:37:06 22:40:09 88° 296° (WNW) 22:42:50 437.345 MHz
HO-68 16 Apr 22:46:36 22:52:08 24° 267° (W) 22:57:42 435.675 MHz FM
FUNcube-1 16 Apr 23:07:28 23:11:38 54° 260° (W) 23:15:45 145.950 - 145.970 MHz USB
Oscar 11 16 Apr 23:29:48 23:30:51 11° 271° (W) 23:31:53 145.825 FM, Beacon 2401.500 USB
ISS 16 Apr 23:40:28 23:43:42 44° 221° (SW) 23:46:54 145.800 FM
SO-50 17 Apr 00:40:42 00:44:57 34° 49° (NE) 00:49:14 436.795 FM
Sapphire 17 Apr 00:53:08 00:57:50 31° 109° (ESE) 01:02:33 437.095 MHz 1200 baud AX-25 AFSK
Oscar 19 17 Apr 01:22:11 01:24:21 13° 89° (E) 01:26:30 437.125 CW, 437.150 USB
Oscar 16 17 Apr 01:29:05 01:32:16 16° 91° (E) 01:35:26 437.025 USB, Beacon 2401.1428
PCSat 17 Apr 01:37:26 01:42:49 80° 118° (ESE) 01:48:16 145.825 MHz
UOSAT-12 17 Apr 01:41:13 01:43:14 13° 35° (NE) 01:45:15 437.025 FM, 437.400 FM
OPAL 17 Apr 01:48:31 01:52:37 26° 63° (ENE) 01:56:46 ?
Uribyol 2 17 Apr 01:59:10 02:02:16 16° 91° (E) 02:05:22 436.500 FM
SO-50 17 Apr 02:21:24 02:25:26 29° 246° (WSW) 02:29:30 436.795 FM
KITSAT 1 17 Apr 02:31:02 02:37:24 26° 105° (ESE) 02:43:47 435.175 FM
Sapphire 17 Apr 02:36:06 02:41:08 38° 307° (NW) 02:46:12 437.095 MHz 1200 baud AX-25 AFSK
AO-27 17 Apr 02:36:40 02:41:24 35° 97° (E) 02:46:06 436.795 MHz FM
ITAMSAT 1 17 Apr 02:47:59 02:52:55 44° 99° (E) 02:57:50 435.822 SSB
Oscar 10/S400 17 Apr 02:53:08 03:11:45 31° 133° (SE) 04:11:32 145.825 - 145.975 CW/USB, Beacon 145.810 USB
Oscar 19 17 Apr 02:59:03 03:04:15 78° 285° (WNW) 03:09:27 437.125 CW, 437.150 USB
TMSAT-1 17 Apr 03:04:43 03:07:26 14° 90° (E) 03:10:09 436.925 FM
Oscar 16 17 Apr 03:06:53 03:12:01 61° 287° (WNW) 03:17:08 437.025 USB, Beacon 2401.1428
UOSAT-12 17 Apr 03:19:35 03:24:18 67° 55° (NE) 03:28:58 437.025 FM, 437.400 FM
PCSat 17 Apr 03:23:12 03:26:54 18° 317° (NW) 03:30:38 145.825 MHz
AO-Echo 17 Apr 03:23:16 03:28:06 78° 103° (ESE) 03:32:48 ?
OPAL 17 Apr 03:26:38 03:31:18 39° 260° (W) 03:36:03 ?
Uribyol 2 17 Apr 03:37:03 03:42:10 62° 287° (WNW) 03:47:15 436.500 FM
Gurwin Techsat 1B 17 Apr 03:52:37 03:57:51 57° 101° (E) 04:03:03 435.225 FM
AO-27 17 Apr 04:16:23 04:20:47 29° 294° (WNW) 04:25:11 436.795 MHz FM
KITSAT 1 17 Apr 04:24:00 04:32:05 70° 304° (WNW) 04:40:14 435.175 FM
ITAMSAT 1 17 Apr 04:28:06 04:32:08 24° 296° (WNW) 04:36:10 435.822 SSB
